EN

Hourly Weather Spychowo

Today, 27 October, Tuesday

Time Temperature Precipitation Wind Pressure Humidity
00:00 +11°C° 0 mm 4 mps 743 mmHg 89%
01:00 +11°C° 0 mm 4 mps 743 mmHg 88%
02:00 +11°C° 0 mm 4 mps 743 mmHg 88%
03:00 +11°C° 0 mm 4 mps 743 mmHg 88%
04:00 +11°C° 0 mm 3 mps 744 mmHg 88%
05:00 +11°C° 0 mm 3 mps 744 mmHg 88%
06:00 +11°C° 0 mm 3 mps 744 mmHg 88%
07:00 +12°C° 0 mm 2 mps 745 mmHg 89%
08:00 +12°C° 0 mm 3 mps 745 mmHg 86%
09:00 +13°C° 0 mm 3 mps 745 mmHg 82%
10:00 +14°C° 0 mm 4 mps 745 mmHg 78%
11:00 +14°C° 0 mm 4 mps 746 mmHg 78%
12:00 +14°C° 0 mm 3 mps 746 mmHg 78%
13:00 +14°C° 0 mm 3 mps 746 mmHg 77%
14:00 +14°C° 0 mm 3 mps 746 mmHg 80%
15:00 +13°C° 0 mm 3 mps 746 mmHg 82%
16:00 +12°C° 0 mm 3 mps 746 mmHg 84%
17:00 +13°C° 0.1 mm 2 mps 746 mmHg 86%
18:00 +12°C° 0.1 mm 2 mps 747 mmHg 88%
19:00 +12°C° 0.1 mm 2 mps 747 mmHg 90%
20:00 +12°C° 0.5 mm 2 mps 747 mmHg 89%
21:00 +10°C° 0.5 mm 2 mps 747 mmHg 89%
22:00 +10°C° 0.5 mm 3 mps 747 mmHg 89%
23:00 +10°C° 0.7 mm 2 mps 747 mmHg 89%

Tomorrow, 28 October, Wednesday

Time Temperature Precipitation Wind Pressure Humidity
00:00 +9°C° 0.7 mm 2 mps 748 mmHg 90%
01:00 +9°C° 0.7 mm 2 mps 748 mmHg 91%
02:00 +9°C° 0 mm 2 mps 748 mmHg 92%
03:00 +8°C° 0 mm 2 mps 748 mmHg 92%
04:00 +8°C° 0 mm 2 mps 748 mmHg 92%
05:00 +8°C° 0 mm 2 mps 748 mmHg 93%
06:00 +8°C° 0 mm 2 mps 748 mmHg 93%
07:00 +7°C° 0 mm 2 mps 749 mmHg 93%
08:00 +9°C° 0 mm 2 mps 749 mmHg 87%
09:00 +10°C° 0 mm 3 mps 749 mmHg 82%
10:00 +11°C° 0 mm 3 mps 749 mmHg 77%
11:00 +12°C° 0 mm 3 mps 749 mmHg 75%
12:00 +13°C° 0 mm 4 mps 748 mmHg 73%
13:00 +13°C° 0 mm 4 mps 748 mmHg 71%
14:00 +13°C° 0 mm 4 mps 748 mmHg 74%
15:00 +12°C° 0 mm 3 mps 748 mmHg 77%
16:00 +11°C° 0 mm 3 mps 748 mmHg 80%
17:00 +10°C° 0 mm 3 mps 748 mmHg 83%
18:00 +10°C° 0 mm 3 mps 748 mmHg 85%
19:00 +10°C° 0 mm 3 mps 748 mmHg 87%
20:00 +10°C° 0 mm 3 mps 748 mmHg 84%
21:00 +10°C° 0 mm 3 mps 748 mmHg 81%
22:00 +10°C° 0 mm 3 mps 748 mmHg 78%
23:00 +9°C° 0 mm 3 mps 748 mmHg 80%

Day after tomorrow, 29 October, Thursday

Time Temperature Precipitation Wind Pressure Humidity
00:00 +8°C° 0 mm 3 mps 748 mmHg 82%
01:00 +8°C° 0 mm 3 mps 748 mmHg 85%
02:00 +8°C° 0 mm 3 mps 748 mmHg 86%
03:00 +7°C° 0 mm 3 mps 748 mmHg 88%
04:00 +7°C° 0 mm 3 mps 748 mmHg 89%
05:00 +7°C° 0 mm 3 mps 748 mmHg 90%
06:00 +7°C° 0 mm 3 mps 748 mmHg 90%
07:00 +7°C° 0 mm 3 mps 748 mmHg 91%
08:00 +8°C° 0 mm 3 mps 748 mmHg 86%
09:00 +9°C° 0 mm 3 mps 748 mmHg 81%
10:00 +10°C° 0 mm 4 mps 748 mmHg 76%
11:00 +11°C° 0 mm 4 mps 748 mmHg 72%
12:00 +12°C° 0 mm 4 mps 748 mmHg 69%
13:00 +13°C° 0 mm 4 mps 748 mmHg 66%
14:00 +12°C° 0 mm 4 mps 748 mmHg 70%
15:00 +11°C° 0 mm 3 mps 747 mmHg 74%
16:00 +11°C° 0 mm 3 mps 747 mmHg 78%
17:00 +10°C° 0.4 mm 3 mps 747 mmHg 82%
18:00 +10°C° 0.4 mm 3 mps 748 mmHg 85%
19:00 +9°C° 0.4 mm 3 mps 748 mmHg 89%
20:00 +9°C° 0.4 mm 3 mps 748 mmHg 88%
21:00 +9°C° 0.4 mm 3 mps 748 mmHg 87%
22:00 +9°C° 0.4 mm 3 mps 748 mmHg 86%
23:00 +8°C° 0 mm 3 mps 749 mmHg 87%

30 October, Friday

Time Temperature Precipitation Wind Pressure Humidity
00:00 +7°C° 0 mm 3 mps 749 mmHg 88%
01:00 +7°C° 0 mm 3 mps 749 mmHg 89%
02:00 +5°C° 0 mm 3 mps 749 mmHg 90%
03:00 +5°C° 0 mm 3 mps 749 mmHg 92%
04:00 +4°C° 0 mm 3 mps 750 mmHg 93%
05:00 +4°C° 0 mm 3 mps 750 mmHg 94%
06:00 +4°C° 0 mm 3 mps 750 mmHg 95%
07:00 +4°C° 0 mm 3 mps 751 mmHg 95%
08:00 +5°C° 0 mm 3 mps 751 mmHg 93%
09:00 +7°C° 0 mm 3 mps 751 mmHg 90%
10:00 +6°C° 0 mm 4 mps 751 mmHg 88%
11:00 +8°C° 0 mm 3 mps 751 mmHg 85%
12:00 +8°C° 0 mm 3 mps 751 mmHg 82%
13:00 +9°C° 0 mm 3 mps 751 mmHg 80%
14:00 +8°C° 0 mm 2 mps 751 mmHg 82%
15:00 +8°C° 0 mm 2 mps 751 mmHg 83%
16:00 +7°C° 0 mm 2 mps 751 mmHg 85%
17:00 +7°C° 0 mm 2 mps 751 mmHg 87%
18:00 +7°C° 0 mm 1 mps 751 mmHg 88%
19:00 +6°C° 0 mm 1 mps 752 mmHg 90%
20:00 +6°C° 0 mm 1 mps 752 mmHg 91%
21:00 +6°C° 0 mm 1 mps 752 mmHg 91%
22:00 +5°C° 0 mm 1 mps 752 mmHg 92%
23:00 +5°C° 0 mm 1 mps 753 mmHg 92%

31 October, Saturday

Time Temperature Precipitation Wind Pressure Humidity
00:00 +5°C° 0 mm 1 mps 753 mmHg 93%
01:00 +5°C° 0 mm 1 mps 753 mmHg 93%
02:00 +5°C° 0 mm 1 mps 754 mmHg 93%
03:00 +5°C° 0 mm 1 mps 754 mmHg 93%
04:00 +4°C° 0 mm 1 mps 754 mmHg 94%
05:00 +4°C° 0 mm 1 mps 755 mmHg 93%
06:00 +4°C° 0 mm 1 mps 755 mmHg 93%
07:00 +4°C° 0 mm 1 mps 755 mmHg 93%
08:00 +6°C° 0 mm 1 mps 756 mmHg 88%
09:00 +7°C° 0 mm 1 mps 756 mmHg 83%
10:00 +9°C° 0 mm 1 mps 757 mmHg 77%
11:00 +10°C° 0 mm 1 mps 757 mmHg 74%
12:00 +9°C° 0 mm 0 mps 757 mmHg 71%
13:00 +10°C° 0 mm 0 mps 757 mmHg 68%
14:00 +9°C° 0 mm 0 mps 757 mmHg 73%
15:00 +8°C° 0 mm 0 mps 757 mmHg 78%
16:00 +7°C° 0 mm 0 mps 758 mmHg 83%
17:00 +6°C° 0 mm 0 mps 758 mmHg 85%
18:00 +6°C° 0 mm 0 mps 758 mmHg 87%
19:00 +7°C° 0 mm 1 mps 758 mmHg 88%
20:00 +6°C° 0 mm 1 mps 759 mmHg 89%
21:00 +6°C° 0 mm 1 mps 759 mmHg 89%
22:00 +6°C° 0 mm 1 mps 759 mmHg 90%
23:00 +5°C° 0 mm 1 mps 759 mmHg 91%

1 November, Sunday

Time Temperature Precipitation Wind Pressure Humidity
00:00 +5°C° 0 mm 1 mps 759 mmHg 91%
01:00 +4°C° 0 mm 2 mps 759 mmHg 92%
02:00 +4°C° 0 mm 2 mps 759 mmHg 92%
03:00 +3°C° 0 mm 2 mps 759 mmHg 92%
04:00 +3°C° 0 mm 2 mps 759 mmHg 93%
05:00 +3°C° 0 mm 2 mps 759 mmHg 93%
06:00 +3°C° 0 mm 2 mps 759 mmHg 93%
07:00 +3°C° 0 mm 2 mps 759 mmHg 93%
08:00 +4°C° 0 mm 2 mps 759 mmHg 88%
09:00 +5°C° 0 mm 3 mps 759 mmHg 82%
10:00 +7°C° 0 mm 3 mps 759 mmHg 76%
11:00 +8°C° 0 mm 3 mps 759 mmHg 73%
12:00 +9°C° 0 mm 3 mps 758 mmHg 70%
13:00 +10°C° 0 mm 3 mps 758 mmHg 66%
14:00 +9°C° 0 mm 3 mps 758 mmHg 71%
15:00 +8°C° 0 mm 3 mps 758 mmHg 75%
16:00 +7°C° 0 mm 2 mps 758 mmHg 79%
17:00 +5°C° 0 mm 3 mps 758 mmHg 80%
18:00 +5°C° 0 mm 3 mps 758 mmHg 81%
19:00 +4°C° 0 mm 3 mps 757 mmHg 83%
20:00 +4°C° 0 mm 3 mps 758 mmHg 83%
21:00 +4°C° 0 mm 3 mps 758 mmHg 84%
22:00 +4°C° 0 mm 3 mps 758 mmHg 85%
23:00 +4°C° 0 mm 3 mps 758 mmHg 86%
Show more

We Need Your Consent

Meteoprog and our Service Providers may store and access personal data such as cookies, device identifiers or other similar technologies on your device and process such data to personalise content and ads, as well as provide social media features and to analyse the traffic.

  • Store and/or access information on your device

    Cookies, device identifiers or other information can be stored or accessed on your device for the purposes indicated above.

  • Personalised ads and content, ad and content measurement, audience insights, and products development

    Ads and content can be personalised based on a profile. More data can be added to better personalise ads and content. Ad and content performance can be measured. Insights about the audience who saw the ads and content can be derived. Such data can be used to develop or improve user’s experience, systems and software.

By clicking ‘I Agree’ you will allow the use of indicated cookies, device identifiers, web beacons or other similar technologies. Your settings can be changed in the browser on your device.

For certain purposes, legitimate interests may be relied on, rather than consent. You can read more about this in our Privacy and Cookie Policy.